Tracking 19149 objects as of 22-Apr-2018
HD Live streaming from Space Station
objects crossing your sky now

FENGYUN 1C DEB

Track FENGYUN 1C DEB now!
10-day predictions


NORAD ID: 30994
Int'l Code: 1999-025BCL
Perigee: 851.5 km
Apogee: 878.8 km
Inclination: 98.9 °
Period: 102.1 minutes
Semi major axis: 7236 km
RCS: 0.0074 m2 (small)
Launch date: May 10, 1999
Source: People's Republic of China (PRC)
Launch site: Taiyaun Space Center, China (TSC)

Note: This is SATELLITE DEBRIS
aabbcc
Your satellite tracking list
Your tracking list is empty




NASA's NSSDC Master Catalog

Two Line Element Set (TLE):
1 30994U 99025BCL 18111.95495698 +.00000101 +00000-0 +81431-4 0  9990
2 30994 098.9363 140.4295 0018860 154.9154 322.0626 14.10396726572208
Source of the keplerian elements: AFSPC